Temp
-10 -10 -10 -10 -10 -10 -10 -10 -10 -10 -10 -10 -10 -10 -11 -11 -11 -11 -12 -12 -12 -12 -11 -11 -10 -11 -11 -12 -12 -13 -13 -14 -14 -14 -14 -14 -13 -14 -15 -14 -15 -14 -13 -13
-11 -11 -10 -11 -11 -11 -11 -11 -10 -10 -10 -10 -10 -9 -11 -11 -11 -11 -11 -11 -11 -12 -11 -11 -11 -11 -12 -13 -13 -13 -14 -14 -14 -14 -15 -14 -14 -14 -15 -16 -15 -14 -14 -14
-11 -11 -11 -10 -11 -11 -11 -11 -10 -10 -9 -10 -9 -9 -10 -11 -11 -11 -11 -11 -11 -12 -12 -12 -12 -13 -13 -13 -13 -14 -14 -14 -14 -15 -15 -15 -14 -15 -15 -17 -16 -15 -14 -13
-11 -12 -11 -11 -12 -12 -11 -11 -11 -10 -10 -10 -10 -9 -10 -11 -11 -11 -11 -12 -12 -13 -13 -14 -14 -14 -15 -14 -15 -14 -15 -15 -15 -15 -15 -15 -15 -14 -15 -16 -17 -16 -15 -13
-12 -12 -12 -11 -12 -12 -11 -11 -11 -11 -11 -11 -11 -11 -11 -12 -11 -11 -12 -12 -12 -13 -15 -16 -16 -16 -16 -15 -15 -16 -16 -15 -16 -15 -15 -15 -15 -15 -15 -15 -16 -16 -16 -15
-12 -12 -12 -12 -11 -12 -12 -12 -12 -12 -12 -11 -12 -13 -10 -12 -12 -13 -13 -14 -15 -15 -15 -15 -16 -17 -17 -17 -16 -16 -16 -15 -15 -16 -16 -16 -16 -16 -16 -16 -16 -16 -16 -16
-11 -11 -12 -12 -12 -12 -12 -12 -12 -12 -11 -11 -12 -13 -12 -12 -13 -13 -14 -14 -15 -15 -17 -17 -17 -17 -17 -17 -17 -17 -16 -16 -16 -16 -16 -17 -16 -17 -16 -15 -16 -16 -16 -16
-11 -11 -11 -11 -11 -12 -12 -13 -14 -13 -12 -12 -13 -12 -12 -14 -14 -15 -16 -16 -16 -17 -18 -18 -18 -18 -18 -18 -18 -17 -17 -17 -16 -17 -17 -17 -16 -16 -17 -17 -16 -16 -16 -17
-12 -11 -11 -11 -11 -12 -13 -13 -14 -14 -14 -13 -12 -13 -13 -13 -14 -15 -16 -17 -18 -18 -19 -19 -19 -19 -19 -19 -18 -18 -17 -18 -18 -17 -17 -17 -17 -17 -17 -18 -18 -17 -16 -17
-13 -12 -12 -12 -12 -12 -13 -14 -14 -15 -15 -15 -13 -13 -14 -14 -15 -16 -16 -17 -18 -19 -20 -20 -20 -20 -19 -19 -19 -19 -19 -18 -19 -18 -18 -18 -18 -18 -19 -19 -18 -18 -18 -17
-13 -13 -12 -12 -13 -14 -13 -13 -14 -14 -15 -15 -16 -14 -13 -15 -17 -17 -19 -20 -20 -20 -21 -21 -21 -21 -21 -20 -20 -19 -19 -20 -19 -20 -19 -19 -19 -19 -19 -19 -19 -19 -19 -18
-13 -13 -12 -12 -14 -14 -14 -14 -15 -16 -16 -16 -18 -15 -16 -18 -19 -20 -20 -20 -21 -21 -21 -21 -22 -22 -21 -21 -22 -22 -22 -22 -22 -22 -21 -21 -21 -21 -21 -21 -21 -20 -19 -19
-13 -13 -13 -13 -13 -14 -14 -14 -15 -17 -17 -17 -20 -18 -19 -21 -22 -22 -22 -22 -22 -22 -22 -22 -22 -22 -24 -24 -25 -25 -25 -25 -25 -24 -23 -23 -23 -23 -23 -23 -23 -23 -22 -21
-14 -14 -14 -14 -15 -15 -15 -16 -18 -18 -19 -20 -20 -21 -21 -21 -21 -22 -22 -23 -22 -22 -23 -23 -25 -25 -25 -25 -25 -25 -24 -24 -24 -23 -23 -23 -23 -23 -23 -23 -23 -23 -23 -23
-14 -14 -14 -14 -15 -16 -16 -17 -18 -19 -19 -21 -21 -22 -22 -22 -22 -23 -23 -24 -25 -26 -26 -26 -25 -25 -25 -25 -25 -24 -25 -24 -24 -24 -24 -24 -24 -24 -23 -23 -23 -23 -23 -23
-15 -16 -16 -16 -17 -18 -17 -18 -19 -21 -22 -23 -23 -23 -24 -25 -24 -25 -26 -27 -27 -27 -26 -25 -25 -25 -25 -24 -24 -25 -24 -24 -24 -24 -24 -23 -24 -24 -24 -23 -23 -23 -23 -23
-17 -17 -18 -17 -18 -18 -17 -19 -22 -22 -23 -24 -24 -25 -25 -26 -27 -27 -27 -27 -27 -26 -25 -25 -25 -25 -25 -24 -24 -25 -24 -25 -24 -24 -24 -24 -24 -24 -23 -22 -22 -22 -22 -23
-18 -19 -20 -20 -21 -22 -22 -23 -24 -25 -25 -25 -26 -28 -28 -28 -28 -28 -28 -27 -26 -25 -25 -24 -24 -25 -25 -25 -25 -24 -25 -25 -24 -24 -24 -24 -24 -24 -23 -22 -22 -22 -23 -23
-20 -21 -21 -22 -22 -23 -23 -26 -27 -28 -29 -29 -29 -29 -29 -29 -28 -29 -28 -27 -26 -26 -25 -25 -25 -25 -25 -25 -25 -25 -25 -25 -24 -24 -24 -24 -24 -24 -23 -23 -23 -23 -23 -23
-20 -21 -23 -25 -26 -27 -27 -29 -29 -29 -30 -30 -30 -30 -29 -29 -29 -29 -28 -27 -26 -26 -25 -25 -25 -25 -25 -25 -26 -25 -25 -24 -24 -24 -24 -24 -24 -24 -23 -23 -23 -23 -23 -22
-22 -24 -26 -27 -29 -30 -30 -30 -29 -30 -30 -30 -30 -30 -30 -29 -29 -28 -27 -27 -26 -26 -26 -25 -25 -25 -25 -25 -25 -25 -25 -25 -24 -24 -24 -24 -23 -24 -24 -23 -23 -23 -23 -23
-24 -26 -28 -30 -31 -31 -30 -30 -30 -30 -31 -31 -31 -30 -30 -29 -28 -28 -27 -26 -26 -26 -25 -25 -26 -25 -25 -25 -26 -25 -24 -24 -24 -24 -24 -24 -24 -23 -24 -23 -23 -23 -23 -22
-27 -29 -30 -31 -30 -31 -32 -32 -32 -32 -31 -31 -31 -30 -29 -28 -28 -27 -27 -26 -26 -26 -26 -26 -26 -26 -25 -25 -25 -25 -25 -24 -25 -24 -24 -24 -24 -23 -24 -24 -23 -23 -22 -22
-29 -29 -30 -30 -31 -31 -31 -31 -31 -30 -30 -30 -29 -28 -28 -28 -28 -27 -27 -27 -26 -26 -26 -26 -26 -25 -25 -25 -25 -25 -25 -25 -25 -25 -25 -24 -24 -24 -24 -24 -23 -23 -22 -23
-28 -28 -29 -29 -30 -30 -29 -29 -29 -29 -29 -29 -29 -28 -28 -28 -28 -27 -27 -26 -26 -26 -26 -26 -26 -26 -25 -25 -26 -25 -25 -25 -25 -25 -26 -25 -25 -24 -24 -24 -23 -23 -23 -23
-28 -28 -28 -28 -28 -28 -28 -28 -28 -29 -28 -28 -28 -28 -28 -28 -27 -27 -27 -27 -26 -26 -26 -26 -27 -27 -27 -27 -27 -26 -26 -26 -26 -26 -26 -26 -25 -24 -24 -24 -24 -23 -23 -22
Height
5776 5777 5774 5773 5770 5773 5772 5769 5767 5771 5769 5764 5767 5759 5761 5760 5759 5753 5748 5744 5742 5735 5733 5729 5729 5726 5721 5720 5717 5715 5714 5714 5709 5707 5705 5705 5705 5702 5702 5701 5699 5701 5705 5703
5772 5771 5767 5766 5765 5765 5763 5761 5761 5756 5757 5754 5749 5746 5746 5747 5739 5732 5735 5733 5728 5721 5718 5715 5715 5716 5713 5708 5706 5704 5701 5701 5699 5697 5696 5696 5694 5692 5691 5690 5689 5691 5694 5698
5766 5765 5763 5760 5761 5759 5754 5753 5748 5748 5746 5744 5738 5735 5736 5733 5727 5719 5716 5714 5711 5706 5702 5700 5701 5701 5698 5696 5693 5691 5687 5688 5688 5687 5685 5684 5683 5683 5682 5680 5681 5681 5682 5683
5756 5759 5756 5753 5752 5749 5745 5748 5741 5738 5733 5728 5721 5723 5719 5716 5709 5707 5702 5697 5694 5691 5686 5685 5684 5685 5686 5684 5682 5680 5678 5676 5676 5675 5673 5672 5673 5670 5669 5669 5671 5671 5674 5656
5752 5750 5747 5744 5741 5741 5737 5734 5733 5729 5723 5717 5709 5711 5707 5697 5695 5692 5688 5682 5678 5673 5670 5667 5665 5667 5669 5668 5667 5665 5663 5663 5662 5661 5660 5659 5659 5658 5656 5656 5657 5660 5658 5655
5740 5742 5740 5734 5734 5731 5725 5722 5719 5716 5710 5704 5704 5696 5695 5687 5680 5674 5670 5665 5661 5658 5654 5650 5648 5649 5649 5648 5649 5647 5646 5646 5645 5646 5645 5646 5643 5644 5647 5646 5647 5649 5646 5644
5732 5731 5728 5724 5720 5717 5716 5711 5703 5697 5692 5690 5688 5679 5674 5673 5664 5657 5655 5651 5647 5642 5638 5637 5637 5635 5633 5630 5629 5628 5627 5627 5626 5629 5629 5629 5629 5627 5631 5621 5633 5634 5637 5636
5716 5716 5717 5712 5709 5706 5701 5698 5691 5681 5679 5679 5672 5667 5661 5654 5647 5644 5643 5641 5632 5627 5623 5623 5625 5624 5623 5619 5612 5606 5602 5603 5604 5610 5611 5610 5612 5613 5612 5614 5618 5621 5620 5624
5705 5702 5700 5698 5694 5690 5688 5682 5675 5665 5661 5658 5662 5654 5646 5639 5634 5629 5626 5622 5616 5612 5610 5605 5604 5603 5602 5600 5598 5594 5590 5587 5585 5586 5589 5590 5593 5595 5595 5595 5594 5599 5604 5608
5697 5690 5688 5684 5679 5677 5672 5664 5657 5650 5642 5635 5640 5640 5631 5626 5618 5611 5606 5602 5599 5595 5590 5585 5582 5581 5579 5579 5578 5574 5568 5567 5566 5565 5565 5569 5572 5571 5573 5574 5578 5578 5580 5586
5681 5677 5678 5669 5666 5662 5656 5649 5640 5636 5628 5619 5614 5623 5613 5606 5602 5597 5588 5582 5580 5577 5574 5570 5564 5561 5561 5560 5555 5550 5546 5546 5545 5542 5541 5542 5545 5545 5546 5552 5556 5557 5558 5561
5666 5661 5658 5656 5652 5647 5641 5635 5624 5615 5611 5600 5590 5598 5589 5589 5579 5576 5572 5571 5567 5561 5555 5550 5546 5541 5536 5534 5526 5522 5520 5520 5520 5521 5519 5519 5519 5519 5518 5519 5523 5527 5531 5533
5655 5648 5643 5641 5637 5631 5625 5617 5606 5594 5586 5583 5576 5571 5579 5569 5562 5558 5553 5552 5549 5543 5541 5535 5527 5521 5514 5510 5509 5507 5506 5506 5505 5506 5505 5504 5502 5502 5502 5501 5501 5501 5503 5508
5637 5633 5629 5623 5616 5612 5607 5600 5588 5576 5566 5563 5555 5547 5552 5548 5543 5543 5540 5532 5526 5520 5516 5510 5507 5503 5502 5500 5500 5499 5499 5498 5497 5496 5494 5493 5492 5490 5489 5486 5484 5485 5485 5489
5620 5615 5609 5603 5596 5588 5585 5578 5570 5565 5559 5540 5539 5531 5528 5524 5524 5521 5515 5508 5504 5498 5495 5495 5496 5495 5493 5492 5491 5492 5492 5491 5489 5487 5484 5482 5480 5477 5473 5470 5468 5467 5470 5473
5601 5594 5588 5584 5573 5567 5565 5557 5550 5543 5534 5524 5517 5513 5512 5508 5505 5502 5497 5492 5489 5484 5482 5486 5486 5487 5486 5485 5485 5485 5485 5483 5481 5478 5476 5473 5470 5465 5458 5455 5453 5452 5454 5458
5583 5575 5567 5565 5555 5546 5541 5543 5528 5519 5514 5506 5505 5503 5500 5495 5492 5489 5486 5484 5481 5481 5480 5479 5477 5479 5478 5479 5479 5478 5478 5477 5475 5472 5469 5465 5459 5452 5441 5435 5433 5435 5439 5442
5566 5558 5546 5537 5535 5523 5525 5520 5508 5500 5496 5493 5489 5486 5484 5483 5484 5482 5478 5478 5477 5478 5473 5472 5473 5474 5475 5475 5475 5473 5472 5472 5469 5466 5462 5457 5449 5441 5428 5420 5415 5417 5423 5429
5546 5539 5528 5519 5512 5502 5501 5502 5493 5485 5483 5480 5475 5476 5476 5475 5475 5476 5472 5470 5471 5472 5471 5471 5473 5473 5472 5472 5469 5468 5467 5465 5463 5460 5456 5450 5442 5433 5421 5416 5413 5412 5414 5420
5530 5517 5507 5498 5486 5481 5484 5483 5477 5474 5472 5474 5470 5469 5468 5468 5467 5468 5465 5465 5467 5467 5468 5467 5468 5468 5467 5467 5466 5465 5463 5460 5457 5454 5450 5444 5438 5429 5420 5414 5411 5410 5411 5414
5511 5498 5487 5481 5476 5472 5472 5470 5469 5469 5468 5463 5462 5461 5460 5460 5458 5460 5461 5461 5461 5462 5462 5463 5463 5463 5462 5461 5461 5459 5457 5455 5453 5449 5445 5440 5435 5428 5420 5412 5407 5403 5404 5408
5490 5483 5479 5473 5469 5467 5465 5463 5461 5458 5455 5453 5453 5452 5452 5452 5453 5455 5456 5457 5457 5455 5457 5458 5458 5459 5457 5454 5453 5452 5450 5449 5446 5444 5441 5437 5433 5427 5419 5412 5406 5401 5399 5402
5479 5472 5469 5467 5462 5458 5455 5452 5450 5447 5444 5442 5439 5441 5444 5448 5451 5451 5452 5453 5453 5452 5452 5452 5453 5452 5451 5450 5448 5447 5445 5442 5441 5438 5436 5433 5430 5426 5420 5414 5410 5405 5402 5402
5472 5467 5464 5460 5456 5449 5447 5446 5444 5441 5438 5437 5438 5442 5445 5447 5448 5447 5449 5450 5450 5450 5449 5449 5448 5447 5447 5444 5443 5441 5439 5436 5432 5430 5428 5427 5426 5424 5421 5416 5412 5409 5407 5405
5471 5466 5465 5462 5457 5453 5449 5447 5445 5443 5441 5442 5443 5445 5445 5446 5446 5447 5447 5447 5447 5445 5445 5443 5442 5441 5440 5438 5435 5433 5430 5427 5423 5419 5418 5418 5419 5419 5419 5416 5413 5412 5411 5411
5470 5466 5465 5463 5460 5457 5454 5451 5449 5447 5445 5444 5445 5445 5445 5445 5445 5444 5444 5443 5442 5440 5440 5439 5437 5435 5433 5431 5429 5425 5422 5419 5416 5412 5411 5411 5410 5411 5413 5413 5412 5412 5414 5414
Wind_Speed
14 11 20 24 27 25 28 31 33 30 34 41 37 43 37 34 33 40 41 38 42 50 51 52 54 55 54 52 52 49 43 41 42 39 39 39 45 48 51 49 45 47 47 51
16 13 23 26 27 29 32 36 37 42 42 45 48 49 45 41 45 39 46 57 53 52 54 54 55 50 48 51 49 48 48 43 43 41 36 38 43 46 50 47 50 51 50 51
19 20 24 31 29 33 37 39 44 44 46 49 52 54 50 45 50 53 54 53 55 56 57 56 51 44 41 40 44 47 48 44 43 45 43 41 41 48 54 49 49 54 52 51
29 23 29 34 36 37 42 41 46 49 52 54 58 62 55 50 56 52 55 59 58 58 56 46 47 43 41 44 44 46 49 50 48 47 48 46 44 48 51 53 51 54 51 53
34 34 37 40 42 42 47 48 49 51 55 58 61 54 55 53 55 59 61 63 66 61 53 49 48 48 44 48 48 48 53 52 51 45 50 50 48 42 46 47 54 52 61 49
41 39 41 45 45 47 51 52 53 52 54 60 54 53 58 54 59 63 64 63 61 60 59 57 52 49 51 50 53 53 53 53 50 48 53 55 54 52 49 48 50 59 58 57
41 40 43 45 50 51 51 52 55 60 61 60 56 58 61 62 67 70 68 67 66 64 59 57 54 52 61 52 61 61 56 58 61 52 52 58 60 54 53 47 54 51 61 64
49 47 42 46 49 50 51 51 54 59 58 54 56 61 65 68 69 68 66 65 65 62 61 58 58 62 63 63 65 69 78 66 65 66 62 60 68 68 63 61 61 59 55 67
49 49 50 53 55 54 56 55 57 58 59 63 65 67 70 74 74 75 71 68 64 61 56 59 57 59 58 56 60 68 70 65 64 67 73 69 73 74 68 67 69 67 63 63
52 55 57 61 64 63 62 63 64 63 65 69 71 71 75 76 76 71 69 66 62 58 59 60 60 65 63 62 66 72 72 72 78 77 74 71 70 71 69 70 80 73 68 71
54 55 56 60 60 62 66 69 70 69 72 74 77 76 80 77 72 69 65 63 61 61 62 65 66 70 70 70 74 75 78 78 83 82 85 86 87 87 88 86 86 87 90 91
60 62 63 62 60 62 65 65 72 76 76 77 74 79 77 68 68 67 68 67 66 67 69 70 72 74 75 74 74 74 71 68 68 69 74 78 84 85 83 84 82 88 92 90
62 63 63 62 64 67 69 74 77 78 77 76 69 77 67 62 62 64 66 67 64 66 68 71 73 69 65 55 33 32 31 32 33 34 29 35 37 43 45 48 53 57 67 81
61 65 65 65 67 70 73 73 73 71 70 69 72 72 70 70 71 67 63 66 73 70 66 62 50 30 24 25 25 27 24 20 23 24 28 30 33 37 40 45 48 53 54 52
65 66 68 70 74 75 75 76 74 73 73 72 73 75 72 70 68 69 68 63 57 52 48 42 22 23 23 22 22 21 16 18 19 17 19 22 25 32 35 34 41 40 41 47
66 70 71 73 75 74 76 77 77 72 72 73 71 70 68 65 61 55 49 41 45 47 22 15 15 19 14 16 17 15 18 14 15 20 22 24 29 36 40 42 44 43 45 43
69 70 71 75 76 79 83 77 75 76 73 71 68 65 61 53 42 38 33 30 17 13 16 21 20 14 12 14 13 13 14 14 17 18 22 26 35 45 40 39 41 44 41 40
70 71 70 76 73 79 80 76 70 66 66 65 56 48 35 34 30 32 27 13 7 5 10 23 17 16 13 16 18 15 15 17 19 20 24 29 37 50 34 29 24 28 36 37
69 71 75 80 81 82 79 62 55 49 44 35 33 27 30 29 24 28 25 16 11 10 15 10 11 15 18 20 13 16 20 21 21 22 27 30 36 48 28 16 14 16 25 31
78 81 79 75 69 66 61 45 43 32 29 26 29 34 36 35 35 29 27 21 22 20 17 16 10 13 11 11 17 17 22 21 22 27 27 30 34 44 32 24 16 16 19 25
73 64 60 56 51 42 34 29 31 28 32 29 28 30 32 31 22 15 21 19 21 20 21 20 20 14 16 18 16 17 22 24 22 25 27 30 31 37 42 24 19 18 23 28
58 51 44 36 29 33 35 37 41 44 49 43 42 44 41 33 18 16 14 12 18 19 23 23 17 17 19 17 18 22 22 23 24 26 27 28 29 31 39 24 21 9 11 19
39 36 38 38 40 38 40 42 41 44 45 42 40 31 15 9 9 14 13 12 8 8 7 9 11 12 16 20 21 23 27 29 30 28 26 26 29 28 32 31 14 4 3 9
21 22 19 20 16 21 19 19 17 12 7 4 4 4 2 9 11 6 2 5 7 9 9 11 13 16 18 21 24 27 28 32 36 36 34 30 30 26 23 31 6 5 11 14
9 9 9 9 8 6 6 6 6 7 6 3 2 1 4 6 3 5 5 6 5 9 13 17 20 23 26 28 30 32 34 31 34 39 36 29 27 24 20 23 5 14 14 18
6 8 8 9 10 7 5 5 5 6 5 4 1 4 5 5 5 4 4 7 11 15 18 20 21 21 22 22 24 26 27 28 29 32 31 26 22 22 20 16 9 15 16 19
Wind_Direction
260 256 258 268 272 274 275 277 280 278 280 285 290 288 288 282 283 282 277 283 282 284 289 293 301 299 292 290 288 290 283 282 279 279 276 281 282 274 272 262 259 252 253 250
251 239 253 259 266 278 280 284 288 290 294 295 293 292 295 296 291 279 280 288 292 289 293 294 299 298 290 287 287 285 280 280 285 288 278 284 278 273 273 264 260 254 253 250
268 263 270 275 273 279 284 293 296 297 296 293 293 294 299 292 291 293 295 296 296 296 299 301 301 294 289 289 286 279 279 289 286 287 276 280 278 276 268 256 258 263 257 257
273 272 272 275 283 286 289 296 294 297 298 298 296 296 297 295 292 295 295 300 301 300 302 298 293 285 284 287 284 279 289 291 292 292 274 276 272 273 274 273 254 261 259 254
274 278 277 281 285 289 289 290 291 290 292 293 291 295 293 293 294 295 299 301 302 305 301 292 287 286 283 286 285 279 280 284 280 281 279 272 271 270 275 268 254 250 257 255
280 279 279 278 281 288 290 290 288 288 290 287 294 288 286 289 295 297 299 301 302 301 299 295 288 281 277 279 281 278 274 273 270 268 272 266 262 264 270 267 264 252 252 256
277 280 282 283 286 289 291 293 294 291 294 297 296 294 296 298 298 299 301 301 300 298 292 289 278 268 275 276 281 278 269 269 266 262 267 263 260 257 263 252 261 266 254 251
288 286 280 280 286 293 295 295 293 292 290 292 293 294 298 296 295 296 297 295 294 291 286 284 275 273 271 274 272 272 270 265 264 272 259 264 252 258 251 253 257 259 258 250
286 282 281 285 290 296 300 297 291 288 290 289 291 293 295 295 294 294 296 294 291 287 281 278 277 275 274 270 263 266 262 265 264 265 268 265 250 246 249 259 249 255 253 250
288 287 290 289 291 296 300 295 293 291 289 287 289 290 289 290 291 293 293 290 286 284 282 280 277 275 279 271 264 257 257 263 263 262 263 259 255 261 262 260 257 248 244 252
296 292 295 295 298 295 293 294 293 291 288 289 289 288 289 289 290 289 288 286 284 282 280 279 278 277 277 274 271 268 270 268 270 270 268 264 263 266 265 260 257 256 255 260
297 298 296 298 297 295 292 288 289 288 288 285 284 287 288 288 285 284 281 279 278 279 282 285 286 286 284 282 274 271 271 272 269 268 269 268 264 263 264 263 262 257 255 258
295 295 296 296 295 293 292 290 289 288 287 286 285 286 287 280 276 274 275 279 284 284 286 283 281 277 278 281 274 275 272 272 276 266 273 273 266 263 265 269 264 260 257 254
293 294 295 293 292 290 289 288 285 283 280 282 279 280 279 278 280 283 288 289 291 290 287 281 284 284 277 266 269 270 274 286 271 273 272 266 262 263 263 266 262 259 260 250
291 291 290 289 288 286 285 283 280 280 281 278 282 281 283 287 293 296 297 292 288 282 281 287 265 276 281 278 277 280 281 283 295 311 310 301 301 283 273 268 268 252 248 254
287 287 286 285 285 285 285 284 284 282 281 281 283 287 296 297 293 291 291 291 287 289 281 244 256 283 276 279 272 271 280 285 306 313 308 305 308 312 295 268 262 258 254 257
294 292 290 289 286 282 281 282 280 281 284 288 292 293 291 288 292 292 292 292 303 322 298 281 270 295 232 247 271 281 288 296 297 304 315 315 321 322 305 287 270 255 250 252
289 285 282 283 281 278 284 283 286 288 289 291 288 287 285 285 282 282 285 254 250 351 236 226 256 272 288 276 270 273 281 286 293 310 315 322 331 329 313 300 269 245 233 240
285 284 282 281 283 286 286 294 293 288 288 288 287 273 277 276 279 286 279 253 278 260 240 246 251 259 275 283 262 269 282 289 295 310 313 321 330 329 322 309 293 256 231 227
287 288 288 289 289 290 295 293 292 294 281 279 271 268 268 268 278 280 262 260 284 244 252 292 287 281 296 279 263 272 281 292 309 311 320 323 329 329 338 317 289 257 238 229
288 286 285 285 283 288 285 296 283 281 276 285 276 275 274 276 277 241 248 262 292 274 279 272 286 279 289 282 272 267 278 287 299 308 316 320 326 330 337 336 313 277 241 235
295 294 292 286 277 268 271 270 273 278 280 279 279 276 279 278 244 245 257 265 282 274 271 277 262 272 286 303 294 284 287 296 303 305 312 319 325 329 329 336 331 321 226 217
302 297 292 289 287 282 279 282 285 282 282 284 278 258 254 226 259 268 263 260 272 285 283 273 272 286 288 296 295 294 294 295 297 300 304 310 319 323 326 330 326 353 207 202
318 314 322 315 312 301 297 300 319 332 347 355 87 90 278 260 270 228 257 274 281 286 295 302 305 305 303 302 297 295 296 297 296 295 295 299 305 306 310 318 308 153 127 112
10 19 1 14 18 21 26 8 23 45 63 78 28 253 217 222 230 254 266 270 292 318 319 317 311 306 300 296 296 290 288 290 291 291 293 291 292 290 288 296 240 153 148 144
343 349 341 344 357 18 48 64 48 27 29 20 302 223 205 237 247 270 301 323 331 325 321 315 313 314 311 309 307 302 294 287 285 290 293 291 281 269 256 265 282 183 181 166